Time,TemperatureF,DewpointF,PressureIn,WindDirection,WindDirectionDegrees,WindSpeedMPH,WindSpeedGustMPH,Humidity,HourlyPrecipIn,Conditions,Clouds,dailyrainin,SoftwareType,DateUTC
2013-09-06 00:00:00,50.8,-99.9,30.17,North,0,0.0,0.0,-999,0.00,,---,-99.99,VWS V14.01,2013-09-06 04:00:00,
2013-09-06 00:01:00,50.8,-99.9,30.17,North,0,0.0,0.0,-999,0.00,,---,-99.99,VWS V14.01,2013-09-06 04:01:00,
2013-09-06 00:06:00,50.5,-99.9,30.17,North,0,0.0,0.0,-999,0.00,,---,-99.99,VWS V14.01,2013-09-06 04:06:00,
2013-09-06 00:11:00,50.3,-99.9,30.17,North,0,0.0,0.0,-999,0.00,,---,-99.99,VWS V14.01,2013-09-06 04:11:00,
2013-09-06 00:16:00,50.1,-99.9,30.17,North,0,0.0,0.0,-999,0.00,,---,-99.99,VWS V14.01,2013-09-06 04:16:00,
2013-09-06 00:21:00,49.9,-99.9,30.17,North,0,0.0,3.0,-999,0.00,,---,-99.99,VWS V14.01,2013-09-06 04:21:00,
2013-09-06 00:26:00,49.8,-99.9,30.17,North,0,0.0,3.0,-999,0.00,,---,-99.99,VWS V14.01,2013-09-06 04:26:00,
2013-09-06 00:31:00,49.5,-99.9,30.17,North,0,0.0,0.0,-999,0.00,,---,-99.99,VWS V14.01,2013-09-06 04:31:00,
2013-09-06 00:36:00,49.3,-99.9,30.17,North,0,0.0,1.0,-999,0.00,,---,-99.99,VWS V14.01,2013-09-06 04:36:00,
2013-09-06 00:41:00,49.1,-99.9,30.17,North,0,0.0,1.0,-999,0.00,,---,-99.99,VWS V14.01,2013-09-06 04:41:00,
2013-09-06 00:46:00,49.0,-99.9,30.18,North,0,0.0,1.0,-999,0.00,,---,-99.99,VWS V14.01,2013-09-06 04:46:00,
2013-09-06 00:51:00,48.8,-99.9,30.18,North,0,0.0,2.0,-999,0.00,,---,-99.99,VWS V14.01,2013-09-06 04:51:00,
2013-09-06 00:56:00,48.6,-99.9,30.18,North,0,0.0,2.0,-999,0.00,,---,-99.99,VWS V14.01,2013-09-06 04:56:00,
2013-09-06 01:01:00,48.4,-99.9,30.18,North,0,0.0,0.0,-999,0.00,,---,-99.99,VWS V14.01,2013-09-06 05:01:00,
2013-09-06 01:06:00,48.1,-99.9,30.18,North,0,0.0,0.0,-999,0.00,,---,-99.99,VWS V14.01,2013-09-06 05:06:00,
2013-09-06 01:11:00,47.8,-99.9,30.18,North,0,0.0,0.0,-999,0.00,,---,-99.99,VWS V14.01,2013-09-06 05:11:00,
2013-09-06 01:16:00,47.6,-99.9,30.18,North,0,0.0,0.0,-999,0.00,,---,-99.99,VWS V14.01,2013-09-06 05:16:00,
2013-09-06 01:21:00,47.4,-99.9,30.18,North,0,0.0,0.0,-999,0.00,,---,-99.99,VWS V14.01,2013-09-06 05:21:00,
2013-09-06 01:26:00,47.1,-99.9,30.17,North,0,0.0,0.0,-999,0.00,,---,-99.99,VWS V14.01,2013-09-06 05:26:00,
2013-09-06 01:31:00,47.0,-99.9,30.17,North,0,0.0,0.0,-999,0.00,,---,-99.99,VWS V14.01,2013-09-06 05:31:00,
2013-09-06 01:36:00,46.8,-99.9,30.18,North,0,0.0,0.0,-999,0.00,,---,-99.99,VWS V14.01,2013-09-06 05:36:00,
2013-09-06 01:41:00,46.7,-99.9,30.17,North,0,0.0,0.0,-999,0.00,,---,-99.99,VWS V14.01,2013-09-06 05:41:00,
2013-09-06 01:46:00,46.5,-99.9,30.18,North,0,0.0,0.0,-999,0.00,,---,-99.99,VWS V14.01,2013-09-06 05:46:00,
2013-09-06 01:51:00,46.5,-99.9,30.18,North,0,0.0,0.0,-999,0.00,,---,-99.99,VWS V14.01,2013-09-06 05:51:00,
2013-09-06 01:56:00,46.5,-99.9,30.18,North,0,0.0,0.0,-999,0.00,,---,-99.99,VWS V14.01,2013-09-06 05:56:00,
2013-09-06 02:01:00,46.5,-99.9,30.18,North,0,0.0,0.0,-999,0.00,,---,-99.99,VWS V14.01,2013-09-06 06:01:00,
2013-09-06 02:06:00,46.3,-99.9,30.18,North,0,0.0,0.0,-999,0.00,,---,-99.99,VWS V14.01,2013-09-06 06:06:00,
2013-09-06 02:11:00,46.1,-99.9,30.18,North,0,0.0,0.0,-999,0.00,,---,-99.99,VWS V14.01,2013-09-06 06:11:00,
2013-09-06 02:16:00,45.8,-99.9,30.18,North,0,0.0,0.0,-999,0.00,,---,-99.99,VWS V14.01,2013-09-06 06:16:00,
2013-09-06 02:21:00,45.5,-99.9,30.18,North,0,0.0,0.0,-999,0.00,,---,-99.99,VWS V14.01,2013-09-06 06:21:00,
2013-09-06 02:26:00,45.4,-99.9,30.18,North,0,0.0,0.0,-999,0.00,,---,-99.99,VWS V14.01,2013-09-06 06:26:00,
2013-09-06 02:31:00,45.3,-99.9,30.18,North,0,0.0,0.0,-999,0.00,,---,-99.99,VWS V14.01,2013-09-06 06:31:00,
2013-09-06 02:36:00,45.2,-99.9,30.19,North,0,0.0,0.0,-999,0.00,,---,-99.99,VWS V14.01,2013-09-06 06:36:00,
2013-09-06 02:41:00,45.1,-99.9,30.19,North,0,0.0,0.0,-999,0.00,,---,-99.99,VWS V14.01,2013-09-06 06:41:00,
2013-09-06 02:46:00,45.1,-99.9,30.19,North,0,0.0,0.0,-999,0.00,,---,-99.99,VWS V14.01,2013-09-06 06:46:00,
2013-09-06 02:51:00,45.0,-99.9,30.19,North,0,0.0,0.0,-999,0.00,,---,-99.99,VWS V14.01,2013-09-06 06:51:00,
2013-09-06 02:56:00,44.8,-99.9,30.19,North,0,0.0,0.0,-999,0.00,,---,-99.99,VWS V14.01,2013-09-06 06:56:00,
2013-09-06 03:01:00,44.7,-99.9,30.19,North,0,0.0,0.0,-999,0.00,,---,-99.99,VWS V14.01,2013-09-06 07:01:00,
2013-09-06 03:06:00,44.6,-99.9,30.19,North,0,0.0,0.0,-999,0.00,,---,-99.99,VWS V14.01,2013-09-06 07:06:00,
2013-09-06 03:11:00,44.4,-99.9,30.18,North,0,0.0,0.0,-999,0.00,,---,-99.99,VWS V14.01,2013-09-06 07:11:00,
2013-09-06 03:16:00,44.3,-99.9,30.19,North,0,0.0,0.0,-999,0.00,,---,-99.99,VWS V14.01,2013-09-06 07:16:00,
2013-09-06 03:21:00,44.2,-99.9,30.19,North,0,0.0,0.0,-999,0.00,,---,-99.99,VWS V14.01,2013-09-06 07:21:00,
2013-09-06 03:26:00,44.1,-99.9,30.19,North,0,0.0,0.0,-999,0.00,,---,-99.99,VWS V14.01,2013-09-06 07:26:00,
2013-09-06 03:31:00,44.0,-99.9,30.19,North,0,0.0,0.0,-999,0.00,,---,-99.99,VWS V14.01,2013-09-06 07:31:00,
2013-09-06 03:36:00,43.9,-99.9,30.19,North,0,0.0,0.0,-999,0.00,,---,-99.99,VWS V14.01,2013-09-06 07:36:00,
2013-09-06 03:41:00,43.8,-99.9,30.19,North,0,0.0,0.0,-999,0.00,,---,-99.99,VWS V14.01,2013-09-06 07:41:00,
2013-09-06 03:46:00,43.8,-99.9,30.20,North,0,0.0,0.0,-999,0.00,,---,-99.99,VWS V14.01,2013-09-06 07:46:00,
2013-09-06 03:51:00,43.7,-99.9,30.20,North,0,0.0,0.0,-999,0.00,,---,-99.99,VWS V14.01,2013-09-06 07:51:00,
2013-09-06 03:56:00,43.6,-99.9,30.20,North,0,0.0,2.0,-999,0.00,,---,-99.99,VWS V14.01,2013-09-06 07:56:00,
2013-09-06 04:01:00,43.6,-99.9,30.20,North,0,0.0,0.0,-999,0.00,,---,-99.99,VWS V14.01,2013-09-06 08:01:00,
2013-09-06 04:06:00,43.5,-99.9,30.20,North,0,0.0,0.0,-999,0.00,,---,-99.99,VWS V14.01,2013-09-06 08:06:00,
2013-09-06 04:11:00,43.4,-99.9,30.21,North,0,0.0,0.0,-999,0.00,,---,-99.99,VWS V14.01,2013-09-06 08:11:00,
2013-09-06 04:16:00,43.3,-99.9,30.21,North,0,0.0,0.0,-999,0.00,,---,-99.99,VWS V14.01,2013-09-06 08:16:00,
2013-09-06 04:21:00,43.3,-99.9,30.21,North,0,0.0,0.0,-999,0.00,,---,-99.99,VWS V14.01,2013-09-06 08:21:00,
2013-09-06 04:26:00,43.3,-99.9,30.21,North,0,0.0,0.0,-999,0.00,,---,-99.99,VWS V14.01,2013-09-06 08:26:00,
2013-09-06 04:31:00,43.3,-99.9,30.21,North,0,0.0,0.0,-999,0.00,,---,-99.99,VWS V14.01,2013-09-06 08:31:00,
2013-09-06 04:36:00,43.3,-99.9,30.21,North,0,0.0,0.0,-999,0.00,,---,-99.99,VWS V14.01,2013-09-06 08:36:00,
2013-09-06 04:41:00,43.2,-99.9,30.21,North,0,0.0,0.0,-999,0.00,,---,-99.99,VWS V14.01,2013-09-06 08:41:00,
2013-09-06 04:46:00,43.2,-99.9,30.21,North,0,0.0,0.0,-999,0.00,,---,-99.99,VWS V14.01,2013-09-06 08:46:00,
2013-09-06 04:51:00,43.2,-99.9,30.22,North,0,0.0,0.0,-999,0.00,,---,-99.99,VWS V14.01,2013-09-06 08:51:00,
2013-09-06 04:56:00,43.1,-99.9,30.22,North,0,0.0,0.0,-999,0.00,,---,-99.99,VWS V14.01,2013-09-06 08:56:00,
2013-09-06 05:01:00,43.1,-99.9,30.22,North,0,0.0,0.0,-999,0.00,,---,-99.99,VWS V14.01,2013-09-06 09:01:00,
2013-09-06 05:06:00,43.1,-99.9,30.22,North,0,0.0,0.0,-999,0.00,,---,-99.99,VWS V14.01,2013-09-06 09:06:00,
2013-09-06 05:11:00,43.1,-99.9,30.22,North,0,0.0,0.0,-999,0.00,,---,-99.99,VWS V14.01,2013-09-06 09:11:00,
2013-09-06 05:16:00,43.1,-99.9,30.22,North,0,0.0,0.0,-999,0.00,,---,-99.99,VWS V14.01,2013-09-06 09:16:00,
2013-09-06 05:21:00,43.1,-99.9,30.22,North,0,0.0,0.0,-999,0.00,,---,-99.99,VWS V14.01,2013-09-06 09:21:00,
2013-09-06 05:26:00,43.1,-99.9,30.22,North,0,0.0,0.0,-999,0.00,,---,-99.99,VWS V14.01,2013-09-06 09:26:00,
2013-09-06 05:31:00,43.1,-99.9,30.22,North,0,0.0,0.0,-999,0.00,,---,-99.99,VWS V14.01,2013-09-06 09:31:00,
2013-09-06 05:36:00,43.1,-99.9,30.22,North,0,0.0,0.0,-999,0.00,,---,-99.99,VWS V14.01,2013-09-06 09:36:00,
2013-09-06 05:41:00,43.0,-99.9,30.22,North,0,0.0,0.0,-999,0.00,,---,-99.99,VWS V14.01,2013-09-06 09:41:00,
2013-09-06 05:46:00,43.0,-99.9,30.23,North,0,0.0,0.0,-999,0.00,,---,-99.99,VWS V14.01,2013-09-06 09:46:00,
2013-09-06 05:51:00,42.9,-99.9,30.23,North,0,0.0,0.0,-999,0.00,,---,-99.99,VWS V14.01,2013-09-06 09:51:00,
2013-09-06 05:56:00,42.9,-99.9,30.23,North,0,0.0,0.0,-999,0.00,,---,-99.99,VWS V14.01,2013-09-06 09:56:00,
2013-09-06 06:01:00,42.8,-99.9,30.23,North,0,0.0,0.0,-999,0.00,,---,-99.99,VWS V14.01,2013-09-06 10:01:00,
2013-09-06 06:06:00,42.8,-99.9,30.23,North,0,0.0,0.0,-999,0.00,,---,-99.99,VWS V14.01,2013-09-06 10:06:00,
2013-09-06 06:11:00,42.8,-99.9,30.23,North,0,0.0,0.0,-999,0.00,,---,-99.99,VWS V14.01,2013-09-06 10:11:00,
2013-09-06 06:16:00,42.7,-99.9,30.23,North,0,0.0,0.0,-999,0.00,,---,-99.99,VWS V14.01,2013-09-06 10:16:00,
2013-09-06 06:21:00,42.8,-99.9,30.23,North,0,0.0,0.0,-999,0.00,,---,-99.99,VWS V14.01,2013-09-06 10:21:00,
2013-09-06 06:26:00,42.8,-99.9,30.23,North,0,0.0,0.0,-999,0.00,,---,-99.99,VWS V14.01,2013-09-06 10:26:00,
2013-09-06 06:31:00,42.9,-99.9,30.24,North,0,0.0,0.0,-999,0.00,,---,-99.99,VWS V14.01,2013-09-06 10:31:00,
2013-09-06 06:36:00,43.0,-99.9,30.24,NW,314,2.0,7.0,-999,0.00,,---,-99.99,VWS V14.01,2013-09-06 10:36:00,
2013-09-06 06:41:00,43.3,-99.9,30.24,NW,310,2.0,7.0,-999,0.00,,---,-99.99,VWS V14.01,2013-09-06 10:41:00,
2013-09-06 06:46:00,43.6,-99.9,30.24,NNW,330,0.0,7.0,-999,0.00,,---,-99.99,VWS V14.01,2013-09-06 10:46:00,
2013-09-06 06:51:00,43.8,-99.9,30.24,NNW,330,0.0,7.0,-999,0.00,,---,-99.99,VWS V14.01,2013-09-06 10:51:00,
2013-09-06 06:56:00,44.1,-99.9,30.24,NNW,329,0.0,7.0,-999,0.00,,---,-99.99,VWS V14.01,2013-09-06 10:56:00,
2013-09-06 07:01:00,44.3,-99.9,30.24,NNW,329,2.0,3.0,-999,0.00,,---,-99.99,VWS V14.01,2013-09-06 11:01:00,
2013-09-06 07:06:00,44.7,-99.9,30.25,NNW,327,1.0,5.0,-999,0.00,,---,-99.99,VWS V14.01,2013-09-06 11:06:00,
2013-09-06 07:11:00,45.1,-99.9,30.25,NW,326,2.0,5.0,-999,0.00,,---,-99.99,VWS V14.01,2013-09-06 11:11:00,
2013-09-06 07:16:00,45.5,-99.9,30.25,NW,326,3.0,5.0,-999,0.00,,---,-99.99,VWS V14.01,2013-09-06 11:16:00,
2013-09-06 07:21:00,45.9,-99.9,30.25,NW,326,0.0,5.0,-999,0.00,,---,-99.99,VWS V14.01,2013-09-06 11:21:00,
2013-09-06 07:26:00,46.3,-99.9,30.25,NW,326,0.0,5.0,-999,0.00,,---,-99.99,VWS V14.01,2013-09-06 11:26:00,
2013-09-06 07:31:00,46.7,-99.9,30.25,NW,326,0.0,0.0,-999,0.00,,---,-99.99,VWS V14.01,2013-09-06 11:31:00,
2013-09-06 07:36:00,47.2,-99.9,30.25,NW,326,0.0,0.0,-999,0.00,,---,-99.99,VWS V14.01,2013-09-06 11:36:00,
2013-09-06 07:41:00,47.5,-99.9,30.25,NW,326,0.0,0.0,-999,0.00,,---,-99.99,VWS V14.01,2013-09-06 11:41:00,
2013-09-06 07:46:00,47.8,-99.9,30.25,NW,326,0.0,0.0,-999,0.00,,---,-99.99,VWS V14.01,2013-09-06 11:46:00,
2013-09-06 07:51:00,48.2,-99.9,30.25,NW,326,0.0,0.0,-999,0.00,,---,-99.99,VWS V14.01,2013-09-06 11:51:00,
2013-09-06 07:56:00,48.5,-99.9,30.25,NW,326,0.0,0.0,-999,0.00,,---,-99.99,VWS V14.01,2013-09-06 11:56:00,
2013-09-06 08:01:00,48.9,-99.9,30.25,NW,326,0.0,0.0,-999,0.00,,---,-99.99,VWS V14.01,2013-09-06 12:01:00,
2013-09-06 08:06:00,49.2,-99.9,30.25,NW,325,0.0,0.0,-999,0.00,,---,-99.99,VWS V14.01,2013-09-06 12:06:00,
2013-09-06 08:11:00,49.5,-99.9,30.25,NW,325,0.0,2.0,-999,0.00,,---,-99.99,VWS V14.01,2013-09-06 12:11:00,
2013-09-06 08:16:00,50.0,-99.9,30.25,NW,325,0.0,2.0,-999,0.00,,---,-99.99,VWS V14.01,2013-09-06 12:16:00,
2013-09-06 08:21:00,50.4,-99.9,30.25,NW,318,1.0,7.0,-999,0.00,,---,-99.99,VWS V14.01,2013-09-06 12:21:00,
2013-09-06 08:26:00,50.9,-99.9,30.25,NW,318,2.0,7.0,-999,0.00,,---,-99.99,VWS V14.01,2013-09-06 12:26:00,
2013-09-06 08:31:00,51.4,-99.9,30.25,NW,315,2.0,3.0,-999,0.00,,---,-99.99,VWS V14.01,2013-09-06 12:31:00,
2013-09-06 08:36:00,51.9,-99.9,30.25,NNW,331,0.0,6.0,-999,0.00,,---,-99.99,VWS V14.01,2013-09-06 12:36:00,
2013-09-06 08:41:00,52.3,-99.9,30.25,NNW,329,0.0,6.0,-999,0.00,,---,-99.99,VWS V14.01,2013-09-06 12:41:00,
2013-09-06 08:46:00,52.7,-99.9,30.25,NNW,339,2.0,6.0,-999,0.00,,---,-99.99,VWS V14.01,2013-09-06 12:46:00,
2013-09-06 08:51:00,53.1,-99.9,30.25,NNW,339,4.0,6.0,-999,0.00,,---,-99.99,VWS V14.01,2013-09-06 12:51:00,
2013-09-06 08:56:00,53.4,-99.9,30.25,NNW,339,0.0,6.0,-999,0.00,,---,-99.99,VWS V14.01,2013-09-06 12:56:00,
2013-09-06 09:01:00,53.9,-99.9,30.25,NNW,338,0.0,1.0,-999,0.00,,---,-99.99,VWS V14.01,2013-09-06 13:01:00,
2013-09-06 09:06:00,54.2,-99.9,30.25,NNW,338,0.0,2.0,-999,0.00,,---,-99.99,VWS V14.01,2013-09-06 13:06:00,
2013-09-06 09:11:00,54.6,-99.9,30.26,NNW,338,2.0,3.0,-999,0.00,,---,-99.99,VWS V14.01,2013-09-06 13:11:00,
2013-09-06 09:16:00,54.9,-99.9,30.26,NNW,337,2.0,4.0,-999,0.00,,---,-99.99,VWS V14.01,2013-09-06 13:16:00,
2013-09-06 09:21:00,55.2,-99.9,30.26,WNW,294,4.0,4.0,-999,0.00,,---,-99.99,VWS V14.01,2013-09-06 13:21:00,
2013-09-06 09:26:00,55.6,-99.9,30.26,WNW,287,0.0,4.0,-999,0.00,,---,-99.99,VWS V14.01,2013-09-06 13:26:00,
2013-09-06 09:31:00,55.8,-99.9,30.26,WNW,287,0.0,0.0,-999,0.00,,---,-99.99,VWS V14.01,2013-09-06 13:31:00,
2013-09-06 09:36:00,56.2,-99.9,30.26,NW,307,0.0,4.0,-999,0.00,,---,-99.99,VWS V14.01,2013-09-06 13:36:00,
2013-09-06 09:41:00,56.7,-99.9,30.26,NW,322,0.0,5.0,-999,0.00,,---,-99.99,VWS V14.01,2013-09-06 13:41:00,
2013-09-06 09:46:00,57.2,-99.9,30.26,North,354,4.0,7.0,-999,0.00,,---,-99.99,VWS V14.01,2013-09-06 13:46:00,
2013-09-06 09:51:00,57.7,-99.9,30.26,North,359,1.0,7.0,-999,0.00,,---,-99.99,VWS V14.01,2013-09-06 13:51:00,
2013-09-06 09:56:00,57.9,-99.9,30.26,NNW,343,4.0,7.0,-999,0.00,,---,-99.99,VWS V14.01,2013-09-06 13:56:00,
2013-09-06 10:01:00,58.2,-99.9,30.26,NNW,339,0.0,0.0,-999,0.00,,---,-99.99,VWS V14.01,2013-09-06 14:01:00,
2013-09-06 10:06:00,58.7,-99.9,30.26,NNW,347,0.0,5.0,-999,0.00,,---,-99.99,VWS V14.01,2013-09-06 14:06:00,
2013-09-06 10:11:00,59.4,-99.9,30.26,North,353,0.0,6.0,-999,0.00,,---,-99.99,VWS V14.01,2013-09-06 14:11:00,
2013-09-06 10:16:00,59.9,-99.9,30.26,SSW,213,3.0,6.0,-999,0.00,,---,-99.99,VWS V14.01,2013-09-06 14:16:00,
2013-09-06 10:21:00,60.6,-99.9,30.26,SSW,213,3.0,6.0,-999,0.00,,---,-99.99,VWS V14.01,2013-09-06 14:21:00,
2013-09-06 10:26:00,61.3,-99.9,30.25,SW,231,0.0,6.0,-999,0.00,,---,-99.99,VWS V14.01,2013-09-06 14:26:00,
2013-09-06 10:31:00,62.0,-99.9,30.25,SSW,213,2.0,3.0,-999,0.00,,---,-99.99,VWS V14.01,2013-09-06 14:31:00,
2013-09-06 10:36:00,62.8,-99.9,30.26,NW,315,5.0,8.0,-999,0.00,,---,-99.99,VWS V14.01,2013-09-06 14:36:00,
2013-09-06 10:41:00,63.2,-99.9,30.25,NW,304,1.0,8.0,-999,0.00,,---,-99.99,VWS V14.01,2013-09-06 14:41:00,
2013-09-06 10:46:00,63.6,-99.9,30.25,NW,310,4.0,8.0,-999,0.00,,---,-99.99,VWS V14.01,2013-09-06 14:46:00,
2013-09-06 10:51:00,63.9,-99.9,30.25,SW,231,0.0,8.0,-999,0.00,,---,-99.99,VWS V14.01,2013-09-06 14:51:00,
2013-09-06 10:56:00,64.3,-99.9,30.25,SW,234,2.0,8.0,-999,0.00,,---,-99.99,VWS V14.01,2013-09-06 14:56:00,
2013-09-06 11:01:00,64.5,-99.9,30.25,SW,233,0.0,0.0,-999,0.00,,---,-99.99,VWS V14.01,2013-09-06 15:01:00,
2013-09-06 11:06:00,64.9,-99.9,30.25,SW,234,3.0,4.0,-999,0.00,,---,-99.99,VWS V14.01,2013-09-06 15:06:00,
2013-09-06 11:11:00,65.1,-99.9,30.25,West,260,1.0,11.0,-999,0.00,,---,-99.99,VWS V14.01,2013-09-06 15:11:00,
2013-09-06 11:16:00,64.9,-99.9,30.25,WSW,256,2.0,11.0,-999,0.00,,---,-99.99,VWS V14.01,2013-09-06 15:16:00,
2013-09-06 11:21:00,64.7,-99.9,30.25,SW,218,5.0,11.0,-999,0.00,,---,-99.99,VWS V14.01,2013-09-06 15:21:00,
2013-09-06 11:26:00,65.0,-99.9,30.25,SSW,198,7.0,11.0,-999,0.00,,---,-99.99,VWS V14.01,2013-09-06 15:26:00,
2013-09-06 11:31:00,65.1,-99.9,30.24,South,173,0.0,0.0,-999,0.00,,---,-99.99,VWS V14.01,2013-09-06 15:31:00,
2013-09-06 11:36:00,65.2,-99.9,30.24,WSW,249,1.0,4.0,-999,0.00,,---,-99.99,VWS V14.01,2013-09-06 15:36:00,
2013-09-06 11:41:00,65.3,-99.9,30.24,SW,214,3.0,6.0,-999,0.00,,---,-99.99,VWS V14.01,2013-09-06 15:41:00,
2013-09-06 11:46:00,65.4,-99.9,30.24,SW,219,2.0,8.0,-999,0.00,,---,-99.99,VWS V14.01,2013-09-06 15:46:00,
2013-09-06 11:51:00,65.2,-99.9,30.24,NNW,336,4.0,8.0,-999,0.00,,---,-99.99,VWS V14.01,2013-09-06 15:51:00,
2013-09-06 11:56:00,64.7,-99.9,30.24,SW,230,2.0,8.0,-999,0.00,,---,-99.99,VWS V14.01,2013-09-06 15:56:00,
2013-09-06 12:01:00,65.0,-99.9,30.24,WSW,253,0.0,5.0,-999,0.00,,---,-99.99,VWS V14.01,2013-09-06 16:01:00,
2013-09-06 12:06:00,65.0,-99.9,30.24,WSW,254,3.0,7.0,-999,0.00,,---,-99.99,VWS V14.01,2013-09-06 16:06:00,
2013-09-06 12:11:00,65.0,-99.9,30.23,North,1,2.0,7.0,-999,0.00,,---,-99.99,VWS V14.01,2013-09-06 16:11:00,
2013-09-06 12:16:00,65.0,-99.9,30.23,North,0,0.0,7.0,-999,0.00,,---,-99.99,VWS V14.01,2013-09-06 16:16:00,
2013-09-06 12:21:00,65.3,-99.9,30.23,North,0,0.0,7.0,-999,0.00,,---,-99.99,VWS V14.01,2013-09-06 16:21:00,
2013-09-06 12:26:00,65.2,-99.9,30.23,South,172,6.0,8.0,-999,0.00,,---,-99.99,VWS V14.01,2013-09-06 16:26:00,
2013-09-06 12:31:00,65.5,-99.9,30.23,SW,221,7.0,8.0,-999,0.00,,---,-99.99,VWS V14.01,2013-09-06 16:31:00,
2013-09-06 12:36:00,65.7,-99.9,30.22,WSW,249,5.0,8.0,-999,0.00,,---,-99.99,VWS V14.01,2013-09-06 16:36:00,
2013-09-06 12:41:00,65.6,-99.9,30.22,WSW,249,0.0,8.0,-999,0.00,,---,-99.99,VWS V14.01,2013-09-06 16:41:00,
2013-09-06 12:46:00,65.8,-99.9,30.22,WSW,248,4.0,8.0,-999,0.00,,---,-99.99,VWS V14.01,2013-09-06 16:46:00,
2013-09-06 12:51:00,66.1,-99.9,30.22,SSW,203,3.0,10.0,-999,0.00,,---,-99.99,VWS V14.01,2013-09-06 16:51:00,
2013-09-06 12:56:00,66.3,-99.9,30.22,SSE,167,1.0,10.0,-999,0.00,,---,-99.99,VWS V14.01,2013-09-06 16:56:00,
2013-09-06 13:01:00,66.5,-99.9,30.21,South,180,3.0,4.0,-999,0.00,,---,-99.99,VWS V14.01,2013-09-06 17:01:00,
2013-09-06 13:06:00,66.0,-99.9,30.21,North,349,2.0,7.0,-999,0.00,,---,-99.99,VWS V14.01,2013-09-06 17:06:00,
2013-09-06 13:11:00,65.5,-99.9,30.21,North,5,2.0,9.0,-999,0.00,,---,-99.99,VWS V14.01,2013-09-06 17:11:00,
2013-09-06 13:16:00,65.5,-99.9,30.21,North,5,0.0,9.0,-999,0.00,,---,-99.99,VWS V14.01,2013-09-06 17:16:00,
2013-09-06 13:21:00,65.8,-99.9,30.21,SW,220,3.0,9.0,-999,0.00,,---,-99.99,VWS V14.01,2013-09-06 17:21:00,
2013-09-06 13:26:00,66.2,-99.9,30.21,SW,225,4.0,13.0,-999,0.00,,---,-99.99,VWS V14.01,2013-09-06 17:26:00,
2013-09-06 13:31:00,66.7,-99.9,30.21,WNW,295,1.0,4.0,-999,0.00,,---,-99.99,VWS V14.01,2013-09-06 17:31:00,
2013-09-06 13:36:00,67.0,-99.9,30.21,WNW,284,0.0,4.0,-999,0.00,,---,-99.99,VWS V14.01,2013-09-06 17:36:00,
2013-09-06 13:41:00,67.0,-99.9,30.21,West,273,4.0,8.0,-999,0.00,,---,-99.99,VWS V14.01,2013-09-06 17:41:00,
2013-09-06 13:46:00,66.8,-99.9,30.21,NNW,348,2.0,8.0,-999,0.00,,---,-99.99,VWS V14.01,2013-09-06 17:46:00,
2013-09-06 13:51:00,66.6,-99.9,30.20,SW,224,0.0,11.0,-999,0.00,,---,-99.99,VWS V14.01,2013-09-06 17:51:00,
2013-09-06 13:56:00,67.1,-99.9,30.20,South,180,0.0,11.0,-999,0.00,,---,-99.99,VWS V14.01,2013-09-06 17:56:00,
2013-09-06 14:01:00,67.4,-99.9,30.20,SW,219,0.0,3.0,-999,0.00,,---,-99.99,VWS V14.01,2013-09-06 18:01:00,
2013-09-06 14:06:00,67.5,-99.9,30.20,SSW,194,6.0,8.0,-999,0.00,,---,-99.99,VWS V14.01,2013-09-06 18:06:00,
2013-09-06 14:11:00,67.8,-99.9,30.19,WNW,295,5.0,8.0,-999,0.00,,---,-99.99,VWS V14.01,2013-09-06 18:11:00,
2013-09-06 14:15:00,67.6,-99.9,30.19,NW,306,1.0,9.0,-999,0.00,,---,-99.99,VWS V14.01,2013-09-06 18:15:00,
2013-09-06 14:21:00,67.8,-99.9,30.19,SSW,205,7.0,11.0,-999,0.00,,---,-99.99,VWS V14.01,2013-09-06 18:21:00,
2013-09-06 14:25:00,68.1,-99.9,30.18,SSW,200,1.0,11.0,-999,0.00,,---,-99.99,VWS V14.01,2013-09-06 18:25:00,
2013-09-06 14:30:00,67.9,-99.9,30.18,SSW,204,0.0,2.0,-999,0.00,,---,-99.99,VWS V14.01,2013-09-06 18:30:00,
2013-09-06 14:35:00,67.7,-99.9,30.18,WNW,292,1.0,9.0,-999,0.00,,---,-99.99,VWS V14.01,2013-09-06 18:35:00,
2013-09-06 14:41:00,67.5,-99.9,30.18,West,268,1.0,9.0,-999,0.00,,---,-99.99,VWS V14.01,2013-09-06 18:41:00,
2013-09-06 14:46:00,67.4,-99.9,30.18,West,269,6.0,9.0,-999,0.00,,---,-99.99,VWS V14.01,2013-09-06 18:46:00,
2013-09-06 14:50:00,67.6,-99.9,30.18,SW,214,2.0,9.0,-999,0.00,,---,-99.99,VWS V14.01,2013-09-06 18:50:00,
2013-09-06 14:55:00,67.8,-99.9,30.17,WSW,241,1.0,9.0,-999,0.00,,---,-99.99,VWS V14.01,2013-09-06 18:55:00,
2013-09-06 15:00:00,67.7,-99.9,30.17,SW,216,1.0,4.0,-999,0.00,,---,-99.99,VWS V14.01,2013-09-06 19:00:00,
2013-09-06 15:05:00,67.5,-99.9,30.17,SW,226,0.0,4.0,-999,0.00,,---,-99.99,VWS V14.01,2013-09-06 19:05:00,
2013-09-06 15:10:00,67.2,-99.9,30.17,WNW,287,0.0,7.0,-999,0.00,,---,-99.99,VWS V14.01,2013-09-06 19:10:00,
2013-09-06 15:15:00,67.2,-99.9,30.16,North,352,3.0,7.0,-999,0.00,,---,-99.99,VWS V14.01,2013-09-06 19:15:00,
2013-09-06 15:20:00,67.2,-99.9,30.16,SE,127,5.0,10.0,-999,0.00,,---,-99.99,VWS V14.01,2013-09-06 19:20:00,
2013-09-06 15:25:00,67.4,-99.9,30.17,West,270,2.0,10.0,-999,0.00,,---,-99.99,VWS V14.01,2013-09-06 19:25:00,
2013-09-06 15:31:00,67.4,-99.9,30.16,SW,232,2.0,3.0,-999,0.00,,---,-99.99,VWS V14.01,2013-09-06 19:31:00,
2013-09-06 15:36:00,67.4,-99.9,30.16,North,0,0.0,9.0,-999,0.00,,---,-99.99,VWS V14.01,2013-09-06 19:36:00,
2013-09-06 15:41:00,67.3,-99.9,30.16,WNW,282,5.0,11.0,-999,0.00,,---,-99.99,VWS V14.01,2013-09-06 19:41:00,
2013-09-06 15:45:00,67.4,-99.9,30.16,SW,234,4.0,11.0,-999,0.00,,---,-99.99,VWS V14.01,2013-09-06 19:45:00,
2013-09-06 15:50:00,67.4,-99.9,30.15,SW,227,0.0,11.0,-999,0.00,,---,-99.99,VWS V14.01,2013-09-06 19:50:00,
2013-09-06 15:55:00,67.7,-99.9,30.15,NNE,15,0.0,11.0,-999,0.00,,---,-99.99,VWS V14.01,2013-09-06 19:55:00,
2013-09-06 16:00:00,67.8,-99.9,30.15,SW,215,0.0,3.0,-999,0.00,,---,-99.99,VWS V14.01,2013-09-06 20:00:00,
2013-09-06 16:05:00,67.9,-99.9,30.15,SW,231,2.0,4.0,-999,0.00,,---,-99.99,VWS V14.01,2013-09-06 20:05:00,
2013-09-06 16:10:00,68.1,-99.9,30.15,SW,227,6.0,6.0,-999,0.00,,---,-99.99,VWS V14.01,2013-09-06 20:10:00,
2013-09-06 16:15:00,68.1,-99.9,30.15,SW,234,2.0,9.0,-999,0.00,,---,-99.99,VWS V14.01,2013-09-06 20:15:00,
2013-09-06 16:20:00,68.1,-99.9,30.14,SSW,206,8.0,9.0,-999,0.00,,---,-99.99,VWS V14.01,2013-09-06 20:20:00,
2013-09-06 16:25:00,68.2,-99.9,30.14,SSW,206,0.0,9.0,-999,0.00,,---,-99.99,VWS V14.01,2013-09-06 20:25:00,
2013-09-06 16:30:00,68.1,-99.9,30.14,South,182,3.0,6.0,-999,0.00,,---,-99.99,VWS V14.01,2013-09-06 20:30:00,
2013-09-06 16:35:00,68.1,-99.9,30.14,SW,230,0.0,6.0,-999,0.00,,---,-99.99,VWS V14.01,2013-09-06 20:35:00,
2013-09-06 16:40:00,68.0,-99.9,30.14,SW,218,5.0,6.0,-999,0.00,,---,-99.99,VWS V14.01,2013-09-06 20:40:00,
2013-09-06 16:45:00,68.0,-99.9,30.14,SSW,212,3.0,8.0,-999,0.00,,---,-99.99,VWS V14.01,2013-09-06 20:45:00,
2013-09-06 16:50:00,67.9,-99.9,30.14,SW,221,0.0,8.0,-999,0.00,,---,-99.99,VWS V14.01,2013-09-06 20:50:00,
2013-09-06 16:55:00,67.8,-99.9,30.14,SW,224,0.0,8.0,-999,0.00,,---,-99.99,VWS V14.01,2013-09-06 20:55:00,
2013-09-06 17:00:00,67.7,-99.9,30.14,SW,224,0.0,0.0,-999,0.00,,---,-99.99,VWS V14.01,2013-09-06 21:00:00,
2013-09-06 17:05:00,67.6,-99.9,30.13,WSW,240,0.0,5.0,-999,0.00,,---,-99.99,VWS V14.01,2013-09-06 21:05:00,
2013-09-06 17:10:00,67.6,-99.9,30.14,SW,227,5.0,7.0,-999,0.00,,---,-99.99,VWS V14.01,2013-09-06 21:10:00,
2013-09-06 17:15:00,67.6,-99.9,30.13,WSW,245,4.0,10.0,-999,0.00,,---,-99.99,VWS V14.01,2013-09-06 21:15:00,
2013-09-06 17:20:00,67.7,-99.9,30.13,South,175,2.0,10.0,-999,0.00,,---,-99.99,VWS V14.01,2013-09-06 21:20:00,
2013-09-06 17:25:00,67.7,-99.9,30.13,SW,234,0.0,10.0,-999,0.00,,---,-99.99,VWS V14.01,2013-09-06 21:25:00,
2013-09-06 17:30:00,67.6,-99.9,30.13,SW,234,0.0,0.0,-999,0.00,,---,-99.99,VWS V14.01,2013-09-06 21:30:00,
2013-09-06 17:35:00,67.4,-99.9,30.13,SW,234,0.0,0.0,-999,0.00,,---,-99.99,VWS V14.01,2013-09-06 21:35:00,
2013-09-06 17:40:00,67.3,-99.9,30.13,SW,231,1.0,7.0,-999,0.00,,---,-99.99,VWS V14.01,2013-09-06 21:40:00,
2013-09-06 17:45:00,67.1,-99.9,30.13,SW,216,0.0,7.0,-999,0.00,,---,-99.99,VWS V14.01,2013-09-06 21:45:00,
2013-09-06 17:50:00,67.0,-99.9,30.13,SW,216,0.0,7.0,-999,0.00,,---,-99.99,VWS V14.01,2013-09-06 21:50:00,
2013-09-06 17:55:00,66.7,-99.9,30.12,SW,216,0.0,7.0,-999,0.00,,---,-99.99,VWS V14.01,2013-09-06 21:55:00,
2013-09-06 18:00:00,66.6,-99.9,30.13,SW,216,1.0,1.0,-999,0.00,,---,-99.99,VWS V14.01,2013-09-06 22:00:00,
2013-09-06 18:05:00,66.5,-99.9,30.13,SSW,213,0.0,5.0,-999,0.00,,---,-99.99,VWS V14.01,2013-09-06 22:05:00,
2013-09-06 18:10:00,66.3,-99.9,30.13,SW,214,0.0,5.0,-999,0.00,,---,-99.99,VWS V14.01,2013-09-06 22:10:00,
2013-09-06 18:15:00,66.1,-99.9,30.13,SW,214,0.0,5.0,-999,0.00,,---,-99.99,VWS V14.01,2013-09-06 22:15:00,
2013-09-06 18:20:00,66.0,-99.9,30.13,SW,214,0.0,5.0,-999,0.00,,---,-99.99,VWS V14.01,2013-09-06 22:20:00,
2013-09-06 18:25:00,65.9,-99.9,30.12,SW,214,1.0,5.0,-999,0.00,,---,-99.99,VWS V14.01,2013-09-06 22:25:00,
2013-09-06 18:30:00,65.6,-99.9,30.13,SW,214,0.0,1.0,-999,0.00,,---,-99.99,VWS V14.01,2013-09-06 22:30:00,
2013-09-06 18:35:00,65.3,-99.9,30.12,SW,214,0.0,1.0,-999,0.00,,---,-99.99,VWS V14.01,2013-09-06 22:35:00,
2013-09-06 18:40:00,65.0,-99.9,30.12,SW,214,0.0,1.0,-999,0.00,,---,-99.99,VWS V14.01,2013-09-06 22:40:00,
2013-09-06 18:45:00,64.8,-99.9,30.12,SSW,211,0.0,1.0,-999,0.00,,---,-99.99,VWS V14.01,2013-09-06 22:45:00,
2013-09-06 18:50:00,64.4,-99.9,30.12,SSW,211,0.0,1.0,-999,0.00,,---,-99.99,VWS V14.01,2013-09-06 22:50:00,
2013-09-06 18:55:00,63.8,-99.9,30.12,SSW,211,0.0,1.0,-999,0.00,,---,-99.99,VWS V14.01,2013-09-06 22:55:00,
2013-09-06 19:00:00,63.2,-99.9,30.12,SSW,211,0.0,0.0,-999,0.00,,---,-99.99,VWS V14.01,2013-09-06 23:00:00,
2013-09-06 19:05:00,62.6,-99.9,30.12,SSW,211,0.0,0.0,-999,0.00,,---,-99.99,VWS V14.01,2013-09-06 23:05:00,
2013-09-06 19:10:00,61.9,-99.9,30.13,SSW,211,0.0,0.0,-999,0.00,,---,-99.99,VWS V14.01,2013-09-06 23:10:00,
2013-09-06 19:15:00,61.2,-99.9,30.12,SSW,211,0.0,0.0,-999,0.00,,---,-99.99,VWS V14.01,2013-09-06 23:15:00,
2013-09-06 19:20:00,60.6,-99.9,30.12,SSW,211,0.0,0.0,-999,0.00,,---,-99.99,VWS V14.01,2013-09-06 23:20:00,
2013-09-06 19:25:00,60.1,-99.9,30.12,SSW,211,0.0,0.0,-999,0.00,,---,-99.99,VWS V14.01,2013-09-06 23:25:00,
2013-09-06 19:30:00,59.7,-99.9,30.12,SSW,211,0.0,0.0,-999,0.00,,---,-99.99,VWS V14.01,2013-09-06 23:30:00,
2013-09-06 19:35:00,59.2,-99.9,30.12,SSW,211,0.0,0.0,-999,0.00,,---,-99.99,VWS V14.01,2013-09-06 23:35:00,
2013-09-06 19:40:00,58.8,-99.9,30.12,SSW,211,0.0,0.0,-999,0.00,,---,-99.99,VWS V14.01,2013-09-06 23:40:00,
2013-09-06 19:45:00,58.5,-99.9,30.12,SSW,211,0.0,0.0,-999,0.00,,---,-99.99,VWS V14.01,2013-09-06 23:45:00,
2013-09-06 19:50:00,58.1,-99.9,30.12,SSW,211,0.0,0.0,-999,0.00,,---,-99.99,VWS V14.01,2013-09-06 23:50:00,
2013-09-06 19:55:00,57.6,-99.9,30.12,SSW,211,0.0,0.0,-999,0.00,,---,-99.99,VWS V14.01,2013-09-06 23:55:00,
2013-09-06 20:00:00,57.2,-99.9,30.12,SSW,211,0.0,0.0,-999,0.00,,---,-99.99,VWS V14.01,2013-09-07 00:00:00,
2013-09-06 20:05:00,57.0,-99.9,30.12,SSW,211,0.0,0.0,-999,0.00,,---,-99.99,VWS V14.01,2013-09-07 00:05:00,
2013-09-06 20:10:00,56.5,-99.9,30.12,SSW,211,0.0,0.0,-999,0.00,,---,-99.99,VWS V14.01,2013-09-07 00:10:00,
2013-09-06 20:15:00,56.1,-99.9,30.12,SSW,211,0.0,0.0,-999,0.00,,---,-99.99,VWS V14.01,2013-09-07 00:15:00,
2013-09-06 20:20:00,55.6,-99.9,30.12,SSW,211,0.0,0.0,-999,0.00,,---,-99.99,VWS V14.01,2013-09-07 00:20:00,
2013-09-06 20:25:00,55.1,-99.9,30.12,SSW,211,0.0,0.0,-999,0.00,,---,-99.99,VWS V14.01,2013-09-07 00:25:00,
2013-09-06 20:30:00,54.8,-99.9,30.12,SSW,211,0.0,0.0,-999,0.00,,---,-99.99,VWS V14.01,2013-09-07 00:30:00,
2013-09-06 20:35:00,54.6,-99.9,30.12,SSW,211,0.0,0.0,-999,0.00,,---,-99.99,VWS V14.01,2013-09-07 00:35:00,
2013-09-06 20:40:00,54.3,-99.9,30.12,SSW,211,0.0,0.0,-999,0.00,,---,-99.99,VWS V14.01,2013-09-07 00:40:00,
2013-09-06 20:45:00,54.1,-99.9,30.12,SSW,211,0.0,0.0,-999,0.00,,---,-99.99,VWS V14.01,2013-09-07 00:45:00,
2013-09-06 20:50:00,53.9,-99.9,30.12,SSW,211,0.0,0.0,-999,0.00,,---,-99.99,VWS V14.01,2013-09-07 00:50:00,
2013-09-06 20:55:00,53.7,-99.9,30.12,SSW,211,0.0,0.0,-999,0.00,,---,-99.99,VWS V14.01,2013-09-07 00:55:00,
2013-09-06 21:00:00,53.5,-99.9,30.12,SSW,211,0.0,0.0,-999,0.00,,---,-99.99,VWS V14.01,2013-09-07 01:00:00,
2013-09-06 21:05:00,53.4,-99.9,30.12,SSW,211,0.0,0.0,-999,0.00,,---,-99.99,VWS V14.01,2013-09-07 01:05:00,
2013-09-06 21:10:00,53.2,-99.9,30.12,SSW,211,0.0,0.0,-999,0.00,,---,-99.99,VWS V14.01,2013-09-07 01:10:00,
2013-09-06 21:15:00,53.1,-99.9,30.11,SSW,211,0.0,0.0,-999,0.00,,---,-99.99,VWS V14.01,2013-09-07 01:15:00,
2013-09-06 21:20:00,53.0,-99.9,30.11,SSW,211,0.0,0.0,-999,0.00,,---,-99.99,VWS V14.01,2013-09-07 01:20:00,
2013-09-06 21:25:00,52.9,-99.9,30.11,SSW,211,0.0,0.0,-999,0.00,,---,-99.99,VWS V14.01,2013-09-07 01:25:00,
2013-09-06 21:30:00,52.8,-99.9,30.11,SSW,211,0.0,0.0,-999,0.00,,---,-99.99,VWS V14.01,2013-09-07 01:30:00,
2013-09-06 21:35:00,52.7,-99.9,30.11,SSW,211,1.0,1.0,-999,0.00,,---,-99.99,VWS V14.01,2013-09-07 01:35:00,
2013-09-06 21:40:00,52.6,-99.9,30.11,SSW,211,0.0,2.0,-999,0.00,,---,-99.99,VWS V14.01,2013-09-07 01:40:00,
2013-09-06 21:45:00,52.6,-99.9,30.11,SSW,211,2.0,3.0,-999,0.00,,---,-99.99,VWS V14.01,2013-09-07 01:45:00,
2013-09-06 21:50:00,52.5,-99.9,30.11,SSW,211,0.0,3.0,-999,0.00,,---,-99.99,VWS V14.01,2013-09-07 01:50:00,
2013-09-06 21:55:00,52.5,-99.9,30.11,SSW,211,1.0,4.0,-999,0.00,,---,-99.99,VWS V14.01,2013-09-07 01:55:00,
2013-09-06 22:00:00,52.5,-99.9,30.11,SSW,211,1.0,3.0,-999,0.00,,---,-99.99,VWS V14.01,2013-09-07 02:00:00,
2013-09-06 22:05:00,52.5,-99.9,30.11,SSW,212,1.0,4.0,-999,0.00,,---,-99.99,VWS V14.01,2013-09-07 02:05:00,
2013-09-06 22:10:00,52.4,-99.9,30.11,SSW,212,0.0,4.0,-999,0.00,,---,-99.99,VWS V14.01,2013-09-07 02:10:00,
2013-09-06 22:15:00,52.5,-99.9,30.11,SSW,212,0.0,4.0,-999,0.00,,---,-99.99,VWS V14.01,2013-09-07 02:15:00,
2013-09-06 22:20:00,52.5,-99.9,30.11,SSW,212,0.0,4.0,-999,0.00,,---,-99.99,VWS V14.01,2013-09-07 02:20:00,
2013-09-06 22:25:00,52.5,-99.9,30.11,SSW,212,0.0,4.0,-999,0.00,,---,-99.99,VWS V14.01,2013-09-07 02:25:00,
2013-09-06 22:30:00,52.5,-99.9,30.11,SSW,212,1.0,1.0,-999,0.00,,---,-99.99,VWS V14.01,2013-09-07 02:30:00,
2013-09-06 22:35:00,52.4,-99.9,30.11,SSW,212,0.0,3.0,-999,0.00,,---,-99.99,VWS V14.01,2013-09-07 02:35:00,
2013-09-06 22:40:00,52.4,-99.9,30.11,SSW,212,2.0,3.0,-999,0.00,,---,-99.99,VWS V14.01,2013-09-07 02:40:00,
2013-09-06 22:45:00,52.4,-99.9,30.10,SSW,212,0.0,3.0,-999,0.00,,---,-99.99,VWS V14.01,2013-09-07 02:45:00,
2013-09-06 22:50:00,52.5,-99.9,30.10,SSW,212,0.0,3.0,-999,0.00,,---,-99.99,VWS V14.01,2013-09-07 02:50:00,
2013-09-06 22:55:00,52.7,-99.9,30.10,SSW,212,0.0,3.0,-999,0.00,,---,-99.99,VWS V14.01,2013-09-07 02:55:00,
2013-09-06 23:00:00,52.8,-99.9,30.10,SSW,212,3.0,3.0,-999,0.00,,---,-99.99,VWS V14.01,2013-09-07 03:00:00,
2013-09-06 23:05:00,53.0,-99.9,30.10,SSW,212,2.0,3.0,-999,0.00,,---,-99.99,VWS V14.01,2013-09-07 03:05:00,
2013-09-06 23:10:00,53.1,-99.9,30.10,SSW,213,2.0,5.0,-999,0.00,,---,-99.99,VWS V14.01,2013-09-07 03:10:00,
2013-09-06 23:15:00,53.2,-99.9,30.10,SW,235,2.0,5.0,-999,0.00,,---,-99.99,VWS V14.01,2013-09-07 03:15:00,
2013-09-06 23:20:00,53.4,-99.9,30.10,WSW,242,3.0,5.0,-999,0.00,,---,-99.99,VWS V14.01,2013-09-07 03:20:00,
2013-09-06 23:25:00,53.5,-99.9,30.10,WSW,243,2.0,5.0,-999,0.00,,---,-99.99,VWS V14.01,2013-09-07 03:25:00,
2013-09-06 23:30:00,53.6,-99.9,30.10,WSW,242,3.0,3.0,-999,0.00,,---,-99.99,VWS V14.01,2013-09-07 03:30:00,
2013-09-06 23:35:00,53.6,-99.9,30.10,WSW,242,2.0,4.0,-999,0.00,,---,-99.99,VWS V14.01,2013-09-07 03:35:00,
2013-09-06 23:40:00,53.6,-99.9,30.09,WSW,242,0.0,4.0,-999,0.00,,---,-99.99,VWS V14.01,2013-09-07 03:40:00,
2013-09-06 23:45:00,53.6,-99.9,30.09,WSW,242,1.0,4.0,-999,0.00,,---,-99.99,VWS V14.01,2013-09-07 03:45:00,
2013-09-06 23:50:00,53.5,-99.9,30.09,WSW,242,0.0,4.0,-999,0.00,,---,-99.99,VWS V14.01,2013-09-07 03:50:00,
2013-09-06 23:55:00,53.5,-99.9,30.09,WSW,242,1.0,4.0,-999,0.00,,---,-99.99,VWS V14.01,2013-09-07 03:55:00,